Weather History for Kremmling, CO

Change the Weather History Date:

Monday, February 3, 2014

  Actual Average (KEGE) Record (KEGE)
Temperature  
Mean Temperature -2 °F -  
Max Temperature 10 °F 35 °F 53 °F (2000)
Min Temperature -14 °F 3 °F -25 °F (1950)
Degree Days  
Heating Degree Days 67    
Moisture  
Dew Point -6 °F    
Average Humidity 73    
Maximum Humidity 85    
Minimum Humidity 57    
Precipitation  
Precipitation 0.00 in - - ()
Sea Level Pressure  
Sea Level Pressure 29.85 in    
Wind  
Wind Speed 0 mph (North)    
Max Wind Speed 0 mph    
Max Gust Speed -    
Visibility 6 miles    
Events Snow    
Averages and records for this station are not official NWS values.
T = Trace of Precipitation, MM = Missing Value Source: NWS Daily Summary

Daily Weather History Graph

Daily Weather History Graph

Search for Another Location

Airport:

Trip Planner

Search our weather history database for the weather conditions in past years. The results will help you decide how hot, cold, wet, or windy it might be!

Date:

Astronomy

Feb. 03, 2014 Rise Set
Actual Time 7:12 AM MST 5:27 PM MST
Civil Twilight 6:43 AM MST 5:55 PM MST
Nautical Twilight 6:11 AM MST 6:27 PM MST
Astronomical Twilight 5:39 AM MST 6:59 PM MST
Moon 9:15 AM MST (2/3) 10:20 PM MST (2/3)
Length of Visible Light 11h 12m
Length of Day
10h 15m
Waxing Crescent, 20% of the Moon is Illuminated
Feb 3
Waxing Crescent
Feb 6
First Quarter
Feb 14
Full
Feb 22
Last Quarter
Mar 1
New

Hourly Weather History & Observations

Time (MST) Temp. Dew Point Humidity Pressure Visibility Wind Dir Wind Speed Gust Speed Precip Events Conditions
12:15 AM -13.0 °F -18.4 °F 77% 29.94 in 10.0 mi Calm Calm - N/A   Scattered Clouds
12:35 AM -14.8 °F -20.2 °F 77% 29.94 in 10.0 mi Calm Calm - N/A   Scattered Clouds
12:55 AM -13.0 °F -18.4 °F 77% 29.94 in 10.0 mi Calm Calm - N/A   Scattered Clouds
1:15 AM -11.2 °F -16.6 °F 77% 29.93 in 10.0 mi Calm Calm - N/A   Scattered Clouds
1:35 AM -14.8 °F -20.2 °F 77% 29.93 in 7.0 mi Calm Calm - N/A   Scattered Clouds
1:55 AM -14.8 °F -22.0 °F 70% 29.93 in 10.0 mi Calm Calm - N/A   Scattered Clouds
2:15 AM -13.0 °F -18.4 °F 77% 29.93 in 10.0 mi Calm Calm - N/A   Mostly Cloudy
2:35 AM -14.8 °F -22.0 °F 70% 29.93 in 10.0 mi Calm Calm - N/A   Overcast
2:55 AM -13.0 °F -18.4 °F 77% 29.92 in 10.0 mi Calm Calm - N/A   Overcast
3:15 AM -13.0 °F -18.4 °F 77% 29.91 in 10.0 mi Calm Calm - N/A   Overcast
3:34 AM -9.4 °F -16.6 °F 71% 29.91 in 10.0 mi Calm Calm - N/A   Overcast
3:55 AM -9.4 °F -16.6 °F 71% 29.90 in 7.0 mi Calm Calm - N/A   Overcast
4:15 AM -9.4 °F -16.6 °F 71% 29.91 in 7.0 mi Calm Calm - N/A   Overcast
4:35 AM -9.4 °F -16.6 °F 71% 29.91 in 5.0 mi Calm Calm - N/A   Haze
4:55 AM -9.4 °F -16.6 °F 71% 29.90 in 7.0 mi Calm Calm - N/A   Overcast
5:15 AM -9.4 °F -16.6 °F 71% 29.90 in 7.0 mi Calm Calm - N/A Snow Light Snow
5:35 AM -9.4 °F -16.6 °F 71% 29.90 in 5.0 mi Calm Calm - N/A Snow Light Snow
5:55 AM -9.4 °F -16.6 °F 71% 29.90 in 7.0 mi Calm Calm - N/A Snow Light Snow
6:15 AM -7.6 °F -14.8 °F 71% 29.90 in 5.0 mi Calm Calm - N/A Snow Light Snow
6:35 AM -9.4 °F -14.8 °F 77% 29.89 in 3.0 mi Calm Calm - N/A Snow Light Snow
6:55 AM -9.4 °F -14.8 °F 77% 29.90 in 5.0 mi Calm Calm - N/A Snow Light Snow
7:15 AM -9.4 °F -16.6 °F 71% 29.90 in 4.0 mi Calm Calm - N/A Snow Light Snow
7:35 AM -9.4 °F -14.8 °F 77% 29.91 in 10.0 mi Calm Calm - N/A   Overcast
7:55 AM -9.4 °F -14.8 °F 77% 29.91 in 4.0 mi Calm Calm - N/A   Haze
8:15 AM -7.6 °F -13.0 °F 77% 29.91 in 10.0 mi Calm Calm - N/A   Mostly Cloudy
8:34 AM -7.6 °F -13.0 °F 77% 29.91 in 5.0 mi Calm Calm - N/A   Haze
8:55 AM -5.8 °F -11.2 °F 77% 29.91 in 10.0 mi Calm Calm - N/A   Overcast
9:14 AM -4.0 °F -9.4 °F 78% 29.91 in 5.0 mi Calm Calm - N/A   Haze
9:35 AM -2.2 °F -7.6 °F 78% 29.89 in 4.0 mi Calm Calm - N/A   Haze
9:54 AM -2.2 °F -7.6 °F 78% 29.90 in 4.0 mi Calm Calm - N/A   Haze
10:15 AM 1.4 °F -5.8 °F 72% 29.89 in 5.0 mi Calm Calm - N/A   Haze
10:35 AM 1.4 °F -5.8 °F 72% 29.89 in 7.0 mi Calm Calm - N/A   Mostly Cloudy
10:55 AM 1.4 °F -5.8 °F 72% 29.88 in 10.0 mi Calm Calm - N/A   Mostly Cloudy
11:14 AM 3.2 °F -7.6 °F 61% 29.87 in 10.0 mi Calm Calm - N/A   Scattered Clouds
11:35 AM 3.2 °F -7.6 °F 61% 29.87 in 10.0 mi Calm Calm - N/A   Mostly Cloudy
11:55 AM 3.2 °F -5.8 °F 66% 29.86 in 10.0 mi Calm Calm - N/A   Overcast
12:15 PM 8.6 °F -4.0 °F 57% 29.84 in 10.0 mi Calm Calm - N/A   Overcast
12:35 PM 8.6 °F -4.0 °F 57% 29.83 in 10.0 mi Calm Calm - N/A   Overcast
12:55 PM 8.6 °F -4.0 °F 57% 29.82 in 10.0 mi Calm Calm - N/A   Overcast
1:15 PM 10.4 °F -2.2 °F 57% 29.81 in 10.0 mi Calm Calm - N/A   Overcast
1:35 PM 10.4 °F -0.4 °F 62% 29.81 in 10.0 mi Calm Calm - N/A   Overcast
1:54 PM 10.4 °F -0.4 °F 62% 29.80 in 10.0 mi Calm Calm - N/A   Overcast
2:15 PM 10.4 °F -0.4 °F 62% 29.80 in 10.0 mi Calm Calm - N/A   Overcast
2:35 PM 10.4 °F -0.4 °F 62% 29.80 in 10.0 mi Calm Calm - N/A   Overcast
2:55 PM 10.4 °F -0.4 °F 62% 29.80 in 10.0 mi Calm Calm - N/A   Overcast
3:14 PM 10.4 °F 1.4 °F 67% 29.80 in 2.0 mi Calm Calm - N/A Snow Light Snow
3:35 PM 10.4 °F 1.4 °F 67% 29.80 in 2.5 mi Calm Calm - N/A Snow Light Snow
3:54 PM 10.4 °F 3.2 °F 73% 29.80 in 4.0 mi Calm Calm - N/A Snow Light Snow
4:14 PM 10.4 °F 3.2 °F 73% 29.80 in 4.0 mi Calm Calm - N/A Snow Light Snow
4:35 PM 10.4 °F 3.2 °F 73% 29.80 in 7.0 mi Calm Calm - N/A Snow Light Snow
4:55 PM 10.4 °F 3.2 °F 73% 29.80 in 5.0 mi Calm Calm - N/A Snow Light Snow
5:15 PM 10.4 °F 3.2 °F 73% 29.80 in 5.0 mi Calm Calm - N/A   Haze
5:34 PM 10.4 °F 3.2 °F 73% 29.80 in 7.0 mi Calm Calm - N/A   Overcast
5:55 PM 10.4 °F 5.0 °F 79% 29.80 in 7.0 mi Calm Calm - N/A   Overcast
6:14 PM 10.4 °F 5.0 °F 79% 29.81 in 5.0 mi Calm Calm - N/A Snow Light Snow
6:34 PM 10.4 °F 5.0 °F 79% 29.80 in 4.0 mi Calm Calm - N/A Snow Light Snow
6:54 PM 10.4 °F 5.0 °F 79% 29.80 in 4.0 mi Calm Calm - N/A Snow Light Snow
7:15 PM 10.4 °F 5.0 °F 79% 29.81 in 5.0 mi Calm Calm - N/A Snow Light Snow
7:35 PM 10.4 °F 5.0 °F 79% 29.80 in 4.0 mi Calm Calm - N/A Snow Light Snow
7:55 PM 8.6 °F 3.2 °F 79% 29.80 in 4.0 mi Calm Calm - N/A Snow Light Snow
8:15 PM 5.0 °F 1.4 °F 85% 29.80 in 5.0 mi Calm Calm - N/A Snow Light Snow
8:35 PM 5.0 °F 1.4 °F 85% 29.80 in 5.0 mi Calm Calm - N/A Snow Light Snow
8:55 PM 8.6 °F 3.2 °F 79% 29.80 in 3.0 mi Calm Calm - N/A Snow Light Snow
9:15 PM 8.6 °F 3.2 °F 79% 29.80 in 2.5 mi Calm Calm - N/A Snow Light Snow
9:34 PM 8.6 °F 3.2 °F 79% 29.79 in 3.0 mi Calm Calm - N/A Snow Light Snow
9:55 PM 8.6 °F 3.2 °F 79% 29.79 in 3.0 mi Calm Calm - N/A Snow Light Snow
10:15 PM 10.4 °F 5.0 °F 79% 29.78 in 2.5 mi Calm Calm - N/A Snow Light Snow
10:35 PM 10.4 °F 5.0 °F 79% 29.78 in 3.0 mi Calm Calm - N/A Snow Light Snow
10:55 PM 8.6 °F 5.0 °F 85% 29.78 in 3.0 mi Calm Calm - N/A Snow Light Snow
11:15 PM 8.6 °F 3.2 °F 79% 29.77 in 2.5 mi Calm Calm - N/A Snow Light Snow
11:35 PM 10.4 °F 5.0 °F 79% 29.77 in 1.5 mi Calm Calm - N/A Snow Light Snow
11:55 PM 10.4 °F 5.0 °F 79% 29.76 in 1.2 mi Calm Calm - N/A Snow Light Snow